• MPC Preparation (Info)

  • MPEC 2014-S100: 2014 SP260

    The following Minor Planet Electronic Circular may be linked-to from your own Web pages, but must not otherwise be redistributed electronically.

    A form allowing access to any MPEC is at the bottom of this page.


    Read MPEC 2014-S99 Read MPEC 2014-S101


    M.P.E.C. 2014-S100                               Issued 2014 Sept. 26, 14:46 UT
    
         The Minor Planet Electronic Circulars contain information on unusual
             minor planets and routine data on comets.  They are published
       on behalf of Commission 20 of the International Astronomical Union by the
              Minor Planet Center, Smithsonian Astrophysical Observatory,
                              Cambridge, MA 02138, U.S.A.
    
                 Prepared using the Tamkin Foundation Computer Network
    
                                  MPC@CFA.HARVARD.EDU
                URL https://www.minorplanetcenter.net/    ISSN 1523-6714
    
                                      2014 SP260
    
    Observations:
         K14SQ0P* C2014 09 24.30839 23 30 54.78 +02 47 51.0          21.5 VqES100G96
         K14SQ0P  C2014 09 24.31498 23 30 54.93 +02 47 35.1          21.2 VqES100G96
         K14SQ0P  C2014 09 24.32158 23 30 55.03 +02 47 18.6          21.2 VqES100G96
         K14SQ0P  C2014 09 24.36733 23 30 56.03 +02 45 24.8          21.2 VqES100G96
         K14SQ0P  C2014 09 24.38204 23 30 56.43 +02 44 46.9          21.0 VqES100G96
         K14SQ0P  C2014 09 24.38855 23 30 56.57 +02 44 30.6          21.6 VqES100G96
         K14SQ0P  C2014 09 25.26646 23 31 30.48 +02 07 19.8          21.6 VqES100G96
         K14SQ0P  C2014 09 25.27132 23 31 30.64 +02 07 07.1          21.1 VqES100G96
         K14SQ0P  C2014 09 25.27375 23 31 30.73 +02 07 00.8          20.9 VqES100G96
         K14SQ0P  C2014 09 26.31541 23 32 10.96 +01 21 23.5          21.0 VqES100G96
         K14SQ0P  C2014 09 26.31778 23 32 11.00 +01 21 17.2          21.2 VqES100G96
         K14SQ0P  C2014 09 26.32016 23 32 11.10 +01 21 10.9          20.8 VqES100G96
         K14SQ0P  C2014 09 26.32259 23 32 11.16 +01 21 04.4          20.6 VqES100G96
    
    Observer details:
    G96 Mt. Lemmon Survey.  Observers E. J. Christensen, A. R. Gibbs.  Measurers
        E. J. Christensen, A. R. Gibbs, A. D. Grauer, R. E. Hill, J. A. Johnson,
        R. A. Kowalski, S. M. Larson, F. C. Shelly.  1.5-m reflector + CCD.
    
    Orbital elements:
    2014 SP260                                               Earth MOID = 0.1353 AU
    Epoch 2014 Dec. 9.0 TT = JDT 2457000.5                  MPC
    M   8.41370              (2000.0)            P               Q
    n   0.45033223     Peri.  227.81886     +0.59844683     -0.80100354
    a   1.6857016      Node   185.49337     +0.77540233     +0.58410065
    e   0.3563497      Incl.    9.59696     +0.20152571     +0.13122408
    P   2.19           H   23.6           G   0.15           U   8
    Residuals in seconds of arc
    140924 G96  0.2+  0.5-    140924 G96  0.0   0.2-    140926 G96  0.3-  0.0
    140924 G96  0.3+  0.1+    140925 G96  0.7-  0.1+    140926 G96  0.2+  0.0
    140924 G96  0.3-  0.1+    140925 G96  0.0   0.1-    140926 G96  0.2+  0.0
    140924 G96  0.5-  0.8+    140925 G96  0.5+  0.1-
    140924 G96  0.3+  0.2-    140926 G96  0.0   0.1-
    
    Ephemeris:
    2014 SP260               a,e,i = 1.69, 0.36, 10                  q = 1.0850
    Date    TT    R. A. (2000) Decl.     Delta      r     Elong.  Phase     V
    2014 08 27    23 20 26.5 +13 11 32   0.3629  1.3426   152.4    20.4    23.1
    ...
    2014 09 11    23 25 21.0 +09 49 17   0.2722  1.2719   165.2    11.6    22.0
    ...
    2014 09 19    23 28 14.8 +06 07 36   0.2341  1.2366   171.2     7.1    21.4
    ...
    2014 09 25    23 31 20.3 +02 19 07   0.2107  1.2117   171.2     7.3    21.2
    2014 09 26    23 31 58.8 +01 35 46   0.2072  1.2077   170.6     7.8    21.1
    2014 09 27    23 32 40.0 +00 50 57   0.2039  1.2037   169.8     8.5    21.1
    ...
    2014 10 03    23 37 55.3 -04 06 45   0.1865  1.1809   163.7    13.7    21.1
    ...
    2014 10 11    23 48 47.9 -11 43 47   0.1702  1.1534   153.6    22.6    21.1
    ...
    2014 10 26    00 24 45.8 -26 17 38   0.1598  1.1130   135.0    39.2    21.4
    
    A. U. Tomatic                (C) Copyright 2014 MPC           M.P.E.C. 2014-S100
    

    Read MPEC 2014-S99 Read MPEC 2014-S101


    MPEC number:

    Enter an MPEC number in one of the following forms:

    • 1997-B01 (the full form)
    • J97B01 (the packed version of the full form)
    • B01 (the abbreviated form)